(9442) Beiligong = 1997 GQ27 = 1995 YU25 = 1990 SA21

Discovered at Xinglong on 1997-04-02 by Beijing Schmidt CCD Asteroid Program.
(9442) Beiligong

Beiligong (Beijing Institute of Technology, BIT) was founded in 1940. With more than 27 000 full-time students currently enrolled, it is one of the national key universities. BIT developed China's first large-scale planetarium, and contributed to the preparatory research of the Five-hundred-meter Aperture Spherical radio Telescope. [Ref: WGSBN Bull. 1, #3, 7]

Orbit

Orbit type: Main Belt

Note: WebGL enabled browser required.

epoch2024-03-31.0
epoch JD2460400.5
perihelion date2020-02-08.54894
perihelion JD2458888.04894
argument of perihelion (°)271.70469
ascending node (°)112.62691
inclination (°)14.13900
eccentricity0.1881496
perihelion distance (AU)2.1048835
Tisserand w.r.t. Jupiter3.4
ΔV w.r.t. Earth (km/sec)10.1
semimajor axis (AU)2.5926988
mean anomaly (°)357.07305
mean daily motion (°/day)0.23608900
aphelion distance (AU)3.081
period (years)4.17
P-vector [x]0.88322630
P-vector [y]0.46445365
P-vector [z]-0.06476192
Q-vector [x]-0.41118508
Q-vector [y]0.83341540
Q-vector [z]0.36925007
absolute magnitude12.85
phase slope0.15
uncertainty0
referenceMPEC 2024-E123
observations used3909
oppositions23
arc length (days)12149
first opposition used1990
last opposition used2023
residual rms (arc-secs)0.50
perturbers coarse indicatorM-v
perturbers precise indicator003Ek
first observation date used1990-09-26.0
last observation date used2023-12-31.0
computer nameMPCLINUX
JD of orbit computation2456966.858698
perihelion JD uncertainty (days)4.2619E-05
argument of perihelion uncertainty (°)1.7614E-05
ascending node uncertainty (°)1.5180E-05
inclination uncertainty (°)3.5950E-06
eccentricity uncertainty 3.4166E-08
perihelion distance uncertainty (AU)9.0429E-08
Minimum Orbit Intersection Distances (in AU)
for orbit epoch: 2460400.5, reference: E2024-EC3
Mercury1.77056
Venus1.40166
Earth1.16456
Mars0.76039
Jupiter2.5173
Saturn6.48245
Uranus15.5237
Neptune27.6189

Observations

3886 total observations over interval: 1990 09 26.24668 – 2023 12 31.055297
These data are available for download (format description).

Date (UT) J2000 RA J2000 Dec Magn Location Ref
1990 09 26.24668 01 23 21.18 -18 27 55.2   808 – El Leoncito MPC 18972
1990 09 26.28269 01 23 19.88 -18 28 16.8   808 – El Leoncito MPC 18972
1995 12 31.38261 09 45 36.80 +18 55 34.2   691 – Steward Observatory, Kitt Peak-Spacewatch MPC 30372
1995 12 31.39467 09 45 36.55 +18 55 40.0 17.3 V 691 – Steward Observatory, Kitt Peak-Spacewatch MPC 30372
1995 12 31.41039 09 45 36.22 +18 55 47.6   691 – Steward Observatory, Kitt Peak-Spacewatch MPC 30372
1997 04 02.74503 14 55 46.37 +04 00 45.7   327 – Peking Observatory, Xinglong Station MPC 29363
1997 04 02.75464 14 55 45.98 +04 00 50.8 17.6   327 – Peking Observatory, Xinglong Station MPC 29363
1997 04 02.76473 14 55 45.67 +04 00 53.0   327 – Peking Observatory, Xinglong Station MPC 29363
1997 04 09.85128 14 51 12.34 +04 42 49.9   327 – Peking Observatory, Xinglong Station MPC 29363
1997 04 09.85566 14 51 12.17 +04 42 51.4 17.5   327 – Peking Observatory, Xinglong Station MPC 29363
1997 04 09.86006 14 51 11.95 +04 42 52.8   327 – Peking Observatory, Xinglong Station MPC 29363
1997 04 16.74487 14 46 01.12 +05 20 08.4 17.5   327 – Peking Observatory, Xinglong Station MPC 29363
1997 04 16.75414 14 46 00.67 +05 20 11.1   327 – Peking Observatory, Xinglong Station MPC 29363
1997 04 16.76285 14 46 00.15 +05 20 13.6   327 – Peking Observatory, Xinglong Station MPC 29363
1997 04 27.32546 14 37 07.51 +06 06 30.4   658 – Dominion Astrophysical Observatory MPC 29746
1997 04 27.32867 14 37 07.39 +06 06 31.9   658 – Dominion Astrophysical Observatory MPC 29746
1997 04 27.33053 14 37 07.25 +06 06 31.7   658 – Dominion Astrophysical Observatory MPC 29746
1998 05 26.78091 21 05 39.36 -16 14 49.9 17.6   327 – Peking Observatory, Xinglong Station MPS 1238
1998 05 26.78527 21 05 39.59 -16 14 50.5   327 – Peking Observatory, Xinglong Station MPS 1238
1998 05 26.78968 21 05 39.70 -16 14 50.8   327 – Peking Observatory, Xinglong Station MPS 1238
1998 05 29.80422 21 07 25.10 -16 21 40.1 17.5   327 – Peking Observatory, Xinglong Station MPS 1238
1998 05 29.80881 21 07 25.24 -16 21 40.9   327 – Peking Observatory, Xinglong Station MPS 1238
1998 05 29.81343 21 07 25.39 -16 21 41.6   327 – Peking Observatory, Xinglong Station MPS 1238
1998 06 02.40233 21 09 15.72 -16 31 41.2 17.1 R 699 – Lowell Observatory-LONEOS MPS 1238
1998 06 02.42223 21 09 16.27 -16 31 45.6   699 – Lowell Observatory-LONEOS MPS 1238
1998 06 02.44214 21 09 16.79 -16 31 49.3   699 – Lowell Observatory-LONEOS MPS 1238
1998 06 24.40119 21 13 48.41 -18 23 37.4 16.8 R 699 – Lowell Observatory-LONEOS MPS 1697
1998 06 24.41860 21 13 48.28 -18 23 45.7   699 – Lowell Observatory-LONEOS MPS 1697
1998 06 24.43603 21 13 48.18 -18 23 52.5   699 – Lowell Observatory-LONEOS MPS 1697
1998 06 26.41562 21 13 35.19 -18 38 30.4 17.6 V 691 – Steward Observatory, Kitt Peak-Spacewatch MPS 80602
1998 06 26.43757 21 13 34.97 -18 38 40.4 17.6 V 691 – Steward Observatory, Kitt Peak-Spacewatch MPS 80602
1998 06 26.45930 21 13 34.74 -18 38 50.3 17.3 V 691 – Steward Observatory, Kitt Peak-Spacewatch MPS 80602
1998 06 29.28214 21 13 05.11 -19 00 58.4 17.7   704 – Lincoln Laboratory ETS, New Mexico MPS 1697
1998 06 29.29383 21 13 04.96 -19 01 05.0 17.7   704 – Lincoln Laboratory ETS, New Mexico MPS 1697
1998 07 02.41481 21 12 16.58 -19 27 16.3 16.4 R 699 – Lowell Observatory-LONEOS MPS 1697
1998 07 02.42971 21 12 16.30 -19 27 24.4   699 – Lowell Observatory-LONEOS MPS 1697
1998 07 02.44461 21 12 15.98 -19 27 31.9   699 – Lowell Observatory-LONEOS MPS 1697
1998 07 09.23655 21 09 36.454 -20 30 04.18 14.85 J I02 – Cerro Tololo Observatory, La Serena--2MASS MPS 80602
1998 07 09.24200 21 09 36.294 -20 30 07.24 14.85 J I02 – Cerro Tololo Observatory, La Serena--2MASS MPS 80602
1998 08 01.15152 20 53 01.263 -24 33 54.65 14.62 J I02 – Cerro Tololo Observatory, La Serena--2MASS MPS 80602
1998 08 17.15163 20 38 49.51 -27 10 58.5 16.5   704 – Lincoln Laboratory ETS, New Mexico MPS 1942
1998 08 17.17253 20 38 48.40 -27 11 09.8 17.0   704 – Lincoln Laboratory ETS, New Mexico MPS 1942
1998 08 17.19343 20 38 47.31 -27 11 20.3   704 – Lincoln Laboratory ETS, New Mexico MPS 1942
1998 08 17.21428 20 38 46.25 -27 11 31.6   704 – Lincoln Laboratory ETS, New Mexico MPS 1942
1998 08 17.23555 20 38 45.13 -27 11 43.1   704 – Lincoln Laboratory ETS, New Mexico MPS 1943
1998 08 18.38593 20 37 48.72 -27 21 24.7 16.9 V 566 – Haleakala-NEAT/GEODSS MPS 1943
1998 08 18.40663 20 37 47.63 -27 21 34.7 17.2 V 566 – Haleakala-NEAT/GEODSS MPS 1943
1998 08 18.42768 20 37 46.57 -27 21 45.3 17.0 V 566 – Haleakala-NEAT/GEODSS MPS 1943
1998 09 22.15903 20 25 32.75 -30 00 23.9 17.5 V 689 – U.S. Naval Observatory, Flagstaff MPS 2979
1998 10 03.13190 20 29 45.05 -30 00 23.0 16.0 V 689 – U.S. Naval Observatory, Flagstaff MPS 2979
1998 10 09.11821 20 33 37.62 -29 52 02.5 17.0 V 689 – U.S. Naval Observatory, Flagstaff MPS 2979
1998 10 20.09487 20 43 18.89 -29 22 48.3 16.3 V 689 – U.S. Naval Observatory, Flagstaff MPS 3761
1999 10 10.43418 07 49 48.12 +15 31 25.2 17.7   704 – Lincoln Laboratory ETS, New Mexico MPS 7185
1999 10 10.45362 07 49 49.57 +15 31 24.0 18.1   704 – Lincoln Laboratory ETS, New Mexico MPS 7185
1999 10 10.46848 07 49 50.64 +15 31 23.4 17.7   704 – Lincoln Laboratory ETS, New Mexico MPS 7185
1999 10 10.48336 07 49 51.80 +15 31 22.2 17.5   704 – Lincoln Laboratory ETS, New Mexico MPS 7185
1999 10 10.50077 07 49 53.12 +15 31 21.2 17.6   704 – Lincoln Laboratory ETS, New Mexico MPS 7185
1999 10 21.41119 08 02 35.26 +15 21 12.8 17.9   704 – Lincoln Laboratory ETS, New Mexico MPS 7185
1999 10 21.42643 08 02 36.24 +15 21 12.2 18.2   704 – Lincoln Laboratory ETS, New Mexico MPS 7185
1999 10 21.44183 08 02 37.17 +15 21 12.1 17.9   704 – Lincoln Laboratory ETS, New Mexico MPS 7185
1999 10 21.45740 08 02 38.14 +15 21 11.2 18.0   704 – Lincoln Laboratory ETS, New Mexico MPS 7185
1999 10 21.47269 08 02 39.10 +15 21 11.5 17.7   704 – Lincoln Laboratory ETS, New Mexico MPS 7185
1999 11 05.43082 08 16 16.092 +15 20 16.24 16.19 J G91 – Whipple Observatory, Mt. Hopkins--2MASS MPS 80602
1999 11 17.43445 08 23 23.86 +15 36 39.7 17.3   704 – Lincoln Laboratory ETS, New Mexico MPS 7678
1999 11 17.44972 08 23 24.28 +15 36 42.3 18.2   704 – Lincoln Laboratory ETS, New Mexico MPS 7678
1999 11 17.46501 08 23 24.66 +15 36 44.3 18.3   704 – Lincoln Laboratory ETS, New Mexico MPS 7678
1999 11 17.48026 08 23 25.07 +15 36 46.1 17.9   704 – Lincoln Laboratory ETS, New Mexico MPS 7678
1999 11 17.49543 08 23 25.45 +15 36 48.6 17.5   704 – Lincoln Laboratory ETS, New Mexico MPS 7678
1999 12 05.42748 08 26 33.88 +16 40 57.0 16.2 R 699 – Lowell Observatory-LONEOS MPS 8243
1999 12 05.45801 08 26 33.69 +16 41 06.4   699 – Lowell Observatory-LONEOS MPS 8243
1999 12 05.48858 08 26 33.45 +16 41 15.6   699 – Lowell Observatory-LONEOS MPS 8243
1999 12 06.42953 08 26 27.10 +16 46 06.0 16.9   704 – Lincoln Laboratory ETS, New Mexico MPS 8243
1999 12 06.44567 08 26 26.96 +16 46 12.3 18.3   704 – Lincoln Laboratory ETS, New Mexico MPS 8243
1999 12 06.45992 08 26 26.80 +16 46 17.5 18.2   704 – Lincoln Laboratory ETS, New Mexico MPS 8243
1999 12 06.47665 08 26 26.65 +16 46 22.4 18.0   704 – Lincoln Laboratory ETS, New Mexico MPS 8243
1999 12 06.49109 08 26 26.43 +16 46 28.3 16.7   704 – Lincoln Laboratory ETS, New Mexico MPS 8243
1999 12 07.36176 08 26 19.11 +16 51 02.5 17.1   704 – Lincoln Laboratory ETS, New Mexico MPS 8243
1999 12 07.37643 08 26 18.96 +16 51 08.8 17.7   704 – Lincoln Laboratory ETS, New Mexico MPS 8243
1999 12 07.39114 08 26 18.85 +16 51 14.4 17.2   704 – Lincoln Laboratory ETS, New Mexico MPS 8243
1999 12 07.40585 08 26 18.64 +16 51 18.8 17.6   704 – Lincoln Laboratory ETS, New Mexico MPS 8243
1999 12 07.42052 08 26 18.42 +16 51 24.6 16.6   704 – Lincoln Laboratory ETS, New Mexico MPS 8243
